Location: Bord�res
(43.2000°N, 0.2167°W)
Time: 13:26:37
(UTC+00:00)

PSLV R/B - Pass Details

Date: 03 March 2021
Orbit: 567 x 598 km, 98.2° (Epoch: 21 April)

Event Time Altitude Azimuth Distance (km) Brightness Sun altitude
Rises 18:33:20 0° 16° (NNE) 2,804 7.3 -8.2°
Reaches altitude 10° 18:35:31 10° 19° (NNE) 1,895 6.4 -8.6°
Maximum altitude 18:39:36 65° 102° (ESE) 632 3.9 -9.4°
Drops below altitude 10° 18:43:37 10° 185° (S) 1,865 6.6 -10.1°
Sets 18:45:45 0° 188° (S) 2,755 7.5 -10.5°
